Weather History for KNCA - March, 2014

Change the Weather History Date:

Friday, March 28, 2014

  Actual Average Record
Temperature  
Mean Temperature 58 °F -  
Max Temperature 73 °F 67 °F 86 °F (2007)
Min Temperature 46 °F 45 °F 28 °F (2001)
Degree Days  
Heating Degree Days 6    
Growing Degree Days 8 (Base 50)    
Moisture  
Dew Point 52 °F    
Average Humidity 77    
Maximum Humidity 97    
Minimum Humidity 57    
Precipitation  
Precipitation 0.00 in - - ()
Sea Level Pressure  
Sea Level Pressure 30.25 in    
Wind  
Wind Speed 7 mph (South)    
Max Wind Speed 18 mph    
Max Gust Speed 26 mph    
Visibility 9 miles    
Events Rain    
Averages and records for this station are not official NWS values.
T = Trace of Precipitation, MM = Missing Value Source: NWS Daily Summary

Daily Weather History Graph

Daily Weather History Graph

Search for Another Location

Airport or City:

Trip Planner

Search our weather history database for the weather conditions in past years. The results will help you decide how hot, cold, wet, or windy it might be!

Date:

Astronomy

Mar. 28, 2014 Rise Set
Actual Time 7:02 AM EDT 7:27 PM EDT
Civil Twilight 6:37 AM EDT 7:53 PM EDT
Nautical Twilight 6:07 AM EDT 8:22 PM EDT
Astronomical Twilight 5:37 AM EDT 8:53 PM EDT
Moon 5:26 AM EDT (3/28) 5:26 PM EDT (3/28)
Length of Visible Light 13h 16m
Length of Day
12h 25m
Waning Crescent, 6% of the Moon is Illuminated
Mar 28
Waning Crescent
Mar 30
New
Apr 7
First Quarter
Apr 15
Full
Apr 22
Last Quarter

Hourly Weather History & Observations

Time (EDT) Temp. Windchill Dew Point Humidity Pressure Visibility Wind Dir Wind Speed Gust Speed Precip Events Conditions
12:56 AM 46.0 °F 43.9 °F 41.0 °F 83% 30.33 in 6.0 mi South 4.6 mph - N/A   Haze
1:56 AM 48.9 °F - 45.0 °F 86% 30.30 in 10.0 mi SSE 5.8 mph - N/A   Clear
2:56 AM 48.0 °F - 44.1 °F 86% 30.30 in 10.0 mi South 3.5 mph - N/A   Overcast
3:56 AM 52.0 °F - 46.9 °F 83% 30.30 in 10.0 mi South 5.8 mph - N/A   Partly Cloudy
4:56 AM 51.1 °F - 48.0 °F 89% 30.29 in 10.0 mi South 5.8 mph - N/A   Scattered Clouds
5:56 AM 50.0 °F - 46.9 °F 89% 30.29 in 10.0 mi SSE 4.6 mph - N/A   Clear
6:56 AM 51.1 °F - 48.0 °F 89% 30.27 in 10.0 mi SSE 4.6 mph - N/A   Clear
7:56 AM 53.1 °F - 50.0 °F 89% 30.28 in 10.0 mi South 4.6 mph - N/A   Clear
8:56 AM 61.0 °F - 52.0 °F 72% 30.28 in 10.0 mi South 8.1 mph - N/A   Partly Cloudy
9:56 AM 66.9 °F - 52.0 °F 59% 30.27 in 10.0 mi SSE 12.7 mph - N/A   Clear
10:56 AM 69.1 °F - 53.1 °F 57% 30.28 in 10.0 mi South 16.1 mph 25.3 mph N/A   Mostly Cloudy
11:56 AM 71.1 °F - 55.9 °F 59% 30.26 in 10.0 mi South 18.4 mph 26.5 mph N/A   Partly Cloudy
12:56 PM 71.1 °F - 55.9 °F 59% 30.24 in 10.0 mi South 15.0 mph 24.2 mph N/A   Overcast
1:56 PM 71.1 °F - 55.9 °F 59% 30.21 in 10.0 mi South 13.8 mph 24.2 mph N/A   Overcast
2:56 PM 70.0 °F - 57.0 °F 63% 30.20 in 10.0 mi SSE 16.1 mph 26.5 mph N/A   Overcast
3:56 PM 70.0 °F - 57.0 °F 63% 30.18 in 10.0 mi South 13.8 mph - N/A   Mostly Cloudy
4:56 PM 66.9 °F - 57.0 °F 70% 30.18 in 10.0 mi South 11.5 mph 20.7 mph 0.00 in Rain Light Rain
6:23 PM 63.0 °F - 60.1 °F 90% 30.18 in 2.5 mi SW 6.9 mph - 0.02 in Rain Light Rain
9:24 PM 62.1 °F - 60.1 °F 93% 30.18 in 6.0 mi SSE 5.8 mph - 0.00 in   Overcast
11:08 PM 61.0 °F - 60.1 °F 97% 30.17 in 5.0 mi Calm Calm - 0.01 in Rain Light Rain